EN

Hourly Weather Kyzylata

Today, 31 July, Saturday

Time Temperature Precipitation Wind Pressure Humidity
00:00 +21°C° 0 mm 3 mps 674 mmHg 33%
01:00 +21°C° 0 mm 3 mps 673 mmHg 34%
02:00 +21°C° 0 mm 3 mps 673 mmHg 34%
03:00 +20°C° 0 mm 3 mps 673 mmHg 34%
04:00 +20°C° 0 mm 3 mps 673 mmHg 34%
05:00 +20°C° 0 mm 2 mps 673 mmHg 34%
06:00 +23°C° 0 mm 2 mps 673 mmHg 30%
07:00 +26°C° 0 mm 1 mps 674 mmHg 26%
08:00 +28°C° 0 mm 1 mps 674 mmHg 22%
09:00 +30°C° 0 mm 1 mps 675 mmHg 20%
10:00 +31°C° 0 mm 2 mps 675 mmHg 17%
11:00 +34°C° 0 mm 3 mps 675 mmHg 15%
12:00 +34°C° 0 mm 3 mps 675 mmHg 15%
13:00 +35°C° 0 mm 4 mps 675 mmHg 14%
14:00 +36°C° 0 mm 4 mps 674 mmHg 13%
15:00 +36°C° 0 mm 4 mps 674 mmHg 14%
16:00 +36°C° 0 mm 4 mps 674 mmHg 14%
17:00 +36°C° 0 mm 5 mps 674 mmHg 14%
18:00 +34°C° 0 mm 4 mps 673 mmHg 16%
19:00 +30°C° 0 mm 4 mps 673 mmHg 18%
20:00 +28°C° 0 mm 3 mps 673 mmHg 20%
21:00 +27°C° 0 mm 3 mps 673 mmHg 21%
22:00 +27°C° 0 mm 3 mps 672 mmHg 23%
23:00 +26°C° 0 mm 3 mps 672 mmHg 25%

Tomorrow, 1 August, Sunday

Time Temperature Precipitation Wind Pressure Humidity
00:00 +26°C° 0 mm 3 mps 672 mmHg 25%
01:00 +25°C° 0 mm 2 mps 672 mmHg 25%
02:00 +25°C° 0 mm 2 mps 672 mmHg 25%
03:00 +25°C° 0 mm 2 mps 672 mmHg 26%
04:00 +25°C° 0 mm 2 mps 672 mmHg 27%
05:00 +24°C° 0 mm 2 mps 672 mmHg 27%
06:00 +26°C° 0 mm 2 mps 672 mmHg 25%
07:00 +28°C° 0 mm 2 mps 673 mmHg 22%
08:00 +30°C° 0 mm 2 mps 673 mmHg 20%
09:00 +31°C° 0 mm 2 mps 673 mmHg 19%
10:00 +33°C° 0 mm 3 mps 674 mmHg 18%
11:00 +34°C° 0 mm 3 mps 674 mmHg 18%
12:00 +35°C° 0 mm 4 mps 673 mmHg 17%
13:00 +36°C° 0 mm 4 mps 673 mmHg 16%
14:00 +37°C° 0 mm 4 mps 673 mmHg 16%
15:00 +36°C° 0 mm 4 mps 673 mmHg 15%
16:00 +36°C° 0 mm 5 mps 673 mmHg 15%
17:00 +36°C° 0 mm 5 mps 672 mmHg 15%
18:00 +34°C° 0 mm 5 mps 672 mmHg 17%
19:00 +32°C° 0 mm 4 mps 672 mmHg 19%
20:00 +29°C° 0 mm 4 mps 672 mmHg 22%
21:00 +28°C° 0 mm 4 mps 671 mmHg 26%
22:00 +26°C° 0 mm 3 mps 671 mmHg 31%
23:00 +25°C° 0 mm 3 mps 671 mmHg 36%

Day after tomorrow, 2 August, Monday

Time Temperature Precipitation Wind Pressure Humidity
00:00 +25°C° 0 mm 3 mps 671 mmHg 37%
01:00 +25°C° 0 mm 3 mps 671 mmHg 37%
02:00 +24°C° 0 mm 3 mps 671 mmHg 38%
03:00 +24°C° 0 mm 3 mps 671 mmHg 37%
04:00 +24°C° 0 mm 3 mps 671 mmHg 36%
05:00 +24°C° 0 mm 2 mps 671 mmHg 35%
06:00 +26°C° 0 mm 2 mps 672 mmHg 30%
07:00 +28°C° 0 mm 1 mps 673 mmHg 25%
08:00 +30°C° 0 mm 1 mps 673 mmHg 21%
09:00 +32°C° 0 mm 2 mps 673 mmHg 18%
10:00 +34°C° 0 mm 3 mps 674 mmHg 16%
11:00 +35°C° 0 mm 4 mps 674 mmHg 14%
12:00 +36°C° 0 mm 4 mps 674 mmHg 13%
13:00 +36°C° 0 mm 4 mps 674 mmHg 12%
14:00 +37°C° 0 mm 4 mps 674 mmHg 11%
15:00 +37°C° 0 mm 4 mps 674 mmHg 11%
16:00 +37°C° 0 mm 5 mps 673 mmHg 11%
17:00 +37°C° 0 mm 5 mps 673 mmHg 11%
18:00 +34°C° 0 mm 5 mps 673 mmHg 12%
19:00 +32°C° 0 mm 5 mps 673 mmHg 13%
20:00 +29°C° 0 mm 4 mps 673 mmHg 15%
21:00 +28°C° 0 mm 4 mps 673 mmHg 18%
22:00 +27°C° 0 mm 4 mps 673 mmHg 22%
23:00 +25°C° 0 mm 3 mps 672 mmHg 25%

3 August, Tuesday

Time Temperature Precipitation Wind Pressure Humidity
00:00 +25°C° 0 mm 3 mps 672 mmHg 27%
01:00 +24°C° 0 mm 3 mps 672 mmHg 28%
02:00 +24°C° 0 mm 3 mps 672 mmHg 30%
03:00 +24°C° 0 mm 3 mps 672 mmHg 30%
04:00 +24°C° 0 mm 3 mps 672 mmHg 29%
05:00 +24°C° 0 mm 3 mps 672 mmHg 29%
06:00 +26°C° 0 mm 2 mps 673 mmHg 24%
07:00 +29°C° 0 mm 1 mps 674 mmHg 20%
08:00 +31°C° 0 mm 1 mps 674 mmHg 16%
09:00 +32°C° 0 mm 2 mps 675 mmHg 15%
10:00 +35°C° 0 mm 3 mps 675 mmHg 13%
11:00 +36°C° 0 mm 4 mps 675 mmHg 12%
12:00 +36°C° 0 mm 4 mps 675 mmHg 12%
13:00 +37°C° 0 mm 4 mps 675 mmHg 11%
14:00 +38°C° 0 mm 4 mps 675 mmHg 10%
15:00 +37°C° 0 mm 5 mps 675 mmHg 11%
16:00 +37°C° 0 mm 5 mps 675 mmHg 11%
17:00 +37°C° 0 mm 5 mps 674 mmHg 11%
18:00 +35°C° 0 mm 5 mps 674 mmHg 15%
19:00 +32°C° 0 mm 5 mps 674 mmHg 19%
20:00 +29°C° 0 mm 4 mps 674 mmHg 23%
21:00 +27°C° 0 mm 4 mps 674 mmHg 26%
22:00 +26°C° 0 mm 4 mps 674 mmHg 29%
23:00 +25°C° 0 mm 4 mps 674 mmHg 32%

4 August, Wednesday

Time Temperature Precipitation Wind Pressure Humidity
00:00 +25°C° 0 mm 3 mps 674 mmHg 31%
01:00 +24°C° 0 mm 3 mps 674 mmHg 31%
02:00 +24°C° 0 mm 3 mps 673 mmHg 30%
03:00 +24°C° 0 mm 3 mps 673 mmHg 29%
04:00 +24°C° 0 mm 3 mps 673 mmHg 29%
05:00 +24°C° 0 mm 3 mps 674 mmHg 28%
06:00 +27°C° 0 mm 2 mps 674 mmHg 24%
07:00 +29°C° 0 mm 2 mps 675 mmHg 20%
08:00 +32°C° 0 mm 1 mps 675 mmHg 15%
09:00 +34°C° 0 mm 2 mps 675 mmHg 14%
10:00 +36°C° 0 mm 2 mps 675 mmHg 12%
11:00 +37°C° 0 mm 3 mps 676 mmHg 10%
12:00 +38°C° 0 mm 3 mps 675 mmHg 9%
13:00 +40°C° 0 mm 4 mps 675 mmHg 9%
14:00 +40°C° 0 mm 4 mps 675 mmHg 8%
15:00 +40°C° 0 mm 4 mps 675 mmHg 8%
16:00 +40°C° 0 mm 4 mps 675 mmHg 8%
17:00 +40°C° 0 mm 4 mps 674 mmHg 8%
18:00 +36°C° 0 mm 3 mps 674 mmHg 10%
19:00 +34°C° 0 mm 3 mps 674 mmHg 12%
20:00 +30°C° 0 mm 2 mps 673 mmHg 14%
21:00 +29°C° 0 mm 2 mps 673 mmHg 15%
22:00 +28°C° 0 mm 3 mps 673 mmHg 15%
23:00 +28°C° 0 mm 3 mps 673 mmHg 16%

5 August, Thursday

Time Temperature Precipitation Wind Pressure Humidity
00:00 +27°C° 0 mm 3 mps 673 mmHg 16%
01:00 +27°C° 0 mm 3 mps 672 mmHg 17%
02:00 +27°C° 0 mm 3 mps 672 mmHg 17%
03:00 +26°C° 0 mm 3 mps 672 mmHg 17%
04:00 +26°C° 0 mm 3 mps 672 mmHg 17%
05:00 +26°C° 0 mm 3 mps 672 mmHg 17%
06:00 +28°C° 0 mm 2 mps 673 mmHg 14%
07:00 +31°C° 0 mm 2 mps 673 mmHg 12%
08:00 +33°C° 0 mm 1 mps 674 mmHg 9%
09:00 +36°C° 0 mm 2 mps 674 mmHg 9%
10:00 +37°C° 0 mm 3 mps 674 mmHg 8%
11:00 +38°C° 0 mm 4 mps 674 mmHg 7%
12:00 +40°C° 0 mm 4 mps 674 mmHg 7%
13:00 +41°C° 0 mm 4 mps 674 mmHg 7%
14:00 +41°C° 0 mm 5 mps 674 mmHg 7%
15:00 +41°C° 0 mm 4 mps 674 mmHg 7%
16:00 +41°C° 0 mm 4 mps 673 mmHg 7%
17:00 +40°C° 0 mm 4 mps 673 mmHg 7%
18:00 +37°C° 0 mm 3 mps 673 mmHg 8%
19:00 +34°C° 0 mm 3 mps 672 mmHg 10%
20:00 +30°C° 0 mm 2 mps 672 mmHg 11%
21:00 +29°C° 0 mm 3 mps 672 mmHg 12%
22:00 +28°C° 0 mm 3 mps 672 mmHg 13%
23:00 +27°C° 0 mm 3 mps 671 mmHg 15%
Show more